UAL2345 KEWR-KATL

Flight info

Callsign UAL2345
Flight time N/A
Altitude 34000
Route LANNA J48 MOL FLASK OZZZI2
Aircraft A319/M-SDE3FGHIRWY/LB1

Departure

Time 2026-05-06 17:51
Airport Newark Liberty International Airport (KEWR)

Arrival

Time N/A
Airport Hartsfield Jackson Atlanta International Airport (KATL)
Time Latitude Longitude Altitude Speed Heading
2026-05-06 17:22 40.68547 -74.18247 20 ft 0 kts 358°
2026-05-06 17:37 40.68530 -74.18246 21 ft 4 kts 354°
2026-05-06 17:37 40.68504 -74.18245 21 ft 4 kts
2026-05-06 17:38 40.68479 -74.18247 21 ft 4 kts
2026-05-06 17:38 40.68468 -74.18249 21 ft 1 kts
2026-05-06 17:38 40.68467 -74.18249 19 ft 0 kts
2026-05-06 17:44 40.68468 -74.18249 20 ft 1 kts
2026-05-06 17:44 40.68470 -74.18244 21 ft 0 kts 47°
2026-05-06 17:45 40.68474 -74.18156 20 ft 16 kts 93°
2026-05-06 17:45 40.68417 -74.18064 20 ft 15 kts 173°
2026-05-06 17:45 40.68355 -74.18011 20 ft 9 kts 84°
2026-05-06 17:45 40.68372 -74.17907 21 ft 13 kts 74°
2026-05-06 17:46 40.68407 -74.17808 23 ft 11 kts 62°
2026-05-06 17:46 40.68447 -74.17726 26 ft 16 kts 52°
2026-05-06 17:46 40.68526 -74.17621 27 ft 15 kts 40°
2026-05-06 17:46 40.68609 -74.17543 26 ft 14 kts 29°
2026-05-06 17:47 40.68695 -74.17490 26 ft 17 kts 24°
2026-05-06 17:47 40.68814 -74.17414 22 ft 20 kts 26°
2026-05-06 17:47 40.68940 -74.17334 20 ft 20 kts 26°
2026-05-06 17:47 40.69062 -74.17257 17 ft 20 kts 25°
2026-05-06 17:48 40.69178 -74.17182 18 ft 18 kts 25°
2026-05-06 17:48 40.69349 -74.17075 18 ft 30 kts 25°
2026-05-06 17:48 40.69510 -74.16963 21 ft 14 kts 52°
2026-05-06 17:48 40.69506 -74.16861 21 ft 10 kts 64°
2026-05-06 17:49 40.69630 -74.16775 20 ft 23 kts 25°
2026-05-06 17:49 40.69776 -74.16683 16 ft 24 kts 26°
2026-05-06 17:49 40.69919 -74.16590 16 ft 20 kts 26°
2026-05-06 17:49 40.70034 -74.16517 15 ft 16 kts 26°
2026-05-06 17:50 40.70060 -74.16428 15 ft 10 kts 100°
2026-05-06 17:50 40.70014 -74.16382 14 ft 9 kts 182°
2026-05-06 17:50 40.69952 -74.16414 14 ft 12 kts 207°
2026-05-06 17:50 40.69716 -74.16563 19 ft 63 kts 206°
2026-05-06 17:51 40.69165 -74.16911 20 ft 113 kts 205°
2026-05-06 17:51 40.68307 -74.17450 46 ft 157 kts 205°
2026-05-06 17:51 40.67330 -74.18048 697 ft 154 kts 200°
2026-05-06 17:51 40.66256 -74.18017 1337 ft 163 kts 167°
2026-05-06 17:52 40.65160 -74.17654 1869 ft 164 kts 191°
2026-05-06 17:52 40.64173 -74.18409 2114 ft 181 kts 228°
2026-05-06 17:52 40.63244 -74.19708 2395 ft 209 kts 218°
2026-05-06 17:52 40.62131 -74.21107 2477 ft 229 kts 233°
2026-05-06 17:53 40.61267 -74.22894 2489 ft 231 kts 237°
2026-05-06 17:53 40.60456 -74.24698 2732 ft 232 kts 237°
2026-05-06 17:53 40.59647 -74.26539 2915 ft 231 kts 238°
2026-05-06 17:53 40.58836 -74.28370 2975 ft 231 kts 238°
2026-05-06 17:54 40.58341 -74.30402 3116 ft 244 kts 263°
2026-05-06 17:54 40.58398 -74.32646 4051 ft 246 kts 267°
2026-05-06 17:54 40.58491 -74.34878 4973 ft 249 kts 268°
2026-05-06 17:54 40.58593 -74.37174 5931 ft 250 kts 268°
2026-05-06 17:55 40.58682 -74.39469 6844 ft 251 kts 267°
2026-05-06 17:55 40.58783 -74.41776 7776 ft 253 kts 268°
2026-05-06 17:55 40.58897 -74.44094 8655 ft 255 kts 268°
2026-05-06 17:55 40.59019 -74.46407 9513 ft 257 kts 268°
2026-05-06 17:56 40.59127 -74.48767 10214 ft 263 kts 264°
2026-05-06 17:56 40.59054 -74.51281 10442 ft 285 kts 262°
2026-05-06 17:56 40.58907 -74.53951 10932 ft 295 kts 261°
2026-05-06 17:56 40.58735 -74.56660 11606 ft 299 kts 261°
2026-05-06 17:57 40.58561 -74.59364 12325 ft 302 kts 262°
2026-05-06 17:57 40.58388 -74.62134 13073 ft 304 kts 262°
2026-05-06 17:57 40.58220 -74.64916 13781 ft 306 kts 263°
2026-05-06 17:57 40.58053 -74.67728 14416 ft 309 kts 263°
2026-05-06 17:58 40.57891 -74.70558 15049 ft 311 kts 263°
2026-05-06 17:58 40.57728 -74.73382 15669 ft 313 kts 263°
2026-05-06 17:58 40.57561 -74.76266 16295 ft 316 kts 263°
2026-05-06 17:58 40.57389 -74.79160 16905 ft 319 kts 263°
2026-05-06 17:59 40.57214 -74.82080 17524 ft 321 kts 263°
2026-05-06 17:59 40.57039 -74.85029 18133 ft 324 kts 263°
2026-05-06 17:59 40.56863 -74.88004 18667 ft 327 kts 263°
2026-05-06 17:59 40.56686 -74.90994 19208 ft 329 kts 263°
2026-05-06 18:00 40.56509 -74.93962 19747 ft 330 kts 264°
2026-05-06 18:00 40.56327 -74.96988 20320 ft 331 kts 264°
2026-05-06 18:00 40.56092 -75.00004 20861 ft 332 kts 258°
2026-05-06 18:00 40.55412 -75.02910 21391 ft 335 kts 247°
2026-05-06 18:01 40.54218 -75.05572 21927 ft 341 kts 236°
2026-05-06 18:01 40.52694 -75.07989 22483 ft 344 kts 234°
2026-05-06 18:01 40.51179 -75.10380 22998 ft 345 kts 234°
2026-05-06 18:01 40.49640 -75.12823 23514 ft 347 kts 235°
2026-05-06 18:02 40.48090 -75.15283 23969 ft 349 kts 235°
2026-05-06 18:02 40.46536 -75.17746 24409 ft 351 kts 235°
2026-05-06 18:02 40.44972 -75.20223 24843 ft 352 kts 236°
2026-05-06 18:02 40.43405 -75.22705 25260 ft 354 kts 236°
2026-05-06 18:03 40.41827 -75.25201 25672 ft 355 kts 236°
2026-05-06 18:03 40.40258 -75.27680 26090 ft 357 kts 236°
2026-05-06 18:03 40.38668 -75.30187 26470 ft 359 kts 236°
2026-05-06 18:03 40.37068 -75.32712 26864 ft 360 kts 236°
2026-05-06 18:04 40.35453 -75.35262 27272 ft 362 kts 237°
2026-05-06 18:04 40.33838 -75.37806 27681 ft 364 kts 237°
2026-05-06 18:04 40.32234 -75.40333 27850 ft 364 kts 237°
2026-05-06 18:04 40.30610 -75.42889 27973 ft 365 kts 237°
2026-05-06 18:05 40.28982 -75.45451 28361 ft 365 kts 237°
2026-05-06 18:05 40.27348 -75.48014 28781 ft 366 kts 237°
2026-05-06 18:05 40.25730 -75.50541 29169 ft 367 kts 237°
2026-05-06 18:05 40.24086 -75.53108 29550 ft 368 kts 237°
2026-05-06 18:06 40.22449 -75.55688 29909 ft 368 kts 239°
2026-05-06 18:06 40.21010 -75.58444 30183 ft 365 kts 243°
2026-05-06 18:06 40.19619 -75.61231 30488 ft 367 kts 243°
2026-05-06 18:06 40.18216 -75.64034 30788 ft 368 kts 243°
2026-05-06 18:07 40.16804 -75.66847 31089 ft 370 kts 243°